[[{"header":{"parameterUnit":"m.s-1","parameterCategory":1,"la1":30.2991,"la2":30.254,"lo1":-89.0895,"lo2":-89.0444,"dy":0.0017,"dx":0.0017,"nx":28,"ny":28,"refTime":"2024-05-17T03:00:00:Z","depth":0,"parameterNumber":2,"parameterNumberName":"U-component_of_WINDS"},"data":[0,0,0,0,0,0,0,0,0,0,0,0,0,0,0,0,0,0,0,0,0,0,0,0,0,0,0,0,0,0,0,0,0,0,0,0,0,0,0,0,0,0,0,0,0,0,0,0,0,0,0,0,0,0,0,0,0,0,1.4899,1.4898,0,1.4855,1.4855,1.4854,1.4779,1.4778,1.4776,1.4775,1.4732,1.4732,1.4732,0,0,0,0,0,0,0,0,0,0,0,0,0,1.4917,1.4917,1.4899,1.4898,1.4897,1.4855,1.4855,1.4854,1.4779,1.4778,1.4776,1.4774,1.4732,1.4732,1.4732,0,0,0,0,0,0,0,0,0,0,0,0,0,1.4895,1.4917,1.4899,1.4855,1.4851,1.4855,1.4854,1.4854,1.478,1.4778,1.4776,1.4774,1.4732,1.4732,1.4732,1.4776,0,0,1.4733,1.4733,0,0,0,0,0,0,0,0,1.4897,1.4895,1.4862,1.4858,1.4853,1.482,1.4845,1.4828,1.478,1.4807,1.4775,1.4773,1.4763,1.4761,1.4757,1.4774,1.4772,1.4733,1.4733,1.4733,1.4733,0,0,0,0,0,0,0,1.4898,1.4896,1.4881,1.4862,1.4856,1.4838,1.4832,1.4842,1.4797,1.4804,1.4799,1.4795,1.476,1.4757,1.4756,1.4772,1.4733,1.4733,1.4734,1.4734,1.482,1.4822,0,0,0,0,0,0,1.4906,1.4898,1.4883,1.488,1.487,1.4839,1.4833,1.4833,1.4797,1.479,1.4796,1.4791,1.4758,1.4756,1.4754,1.4801,1.4733,1.4734,1.4734,1.4818,1.4821,1.4823,0,0,0,0,0,0,1.4907,1.4905,1.4884,1.4887,1.4883,1.4841,1.4842,1.4833,1.483,1.4791,1.4783,1.4801,1.4756,1.4754,1.4771,1.4799,1.4734,1.4734,1.4816,1.4819,1.4822,1.4898,0,0,0,0,0,0,1.4908,1.4906,1.4922,1.4888,1.4883,1.4902,1.4844,1.4834,1.483,1.4823,1.4793,1.4787,1.4754,1.4771,1.4771,1.4798,1.4734,1.4813,1.4817,1.4821,1.4893,1.4903,1.4912,0,0,0,0,0,1.4908,1.4946,1.4924,1.4922,1.4903,1.4904,1.4901,1.4863,1.4833,1.4849,1.4824,1.4787,1.4796,1.4773,1.4773,1.48,1.4811,1.4816,1.4821,1.4888,1.4901,1.4912,0,0,0,0,0,0,1.4985,1.4941,1.4915,1.4943,1.4928,1.4891,1.491,1.4878,1.4871,1.4865,1.4818,1.4812,1.4835,1.4819,1.4795,1.484,1.4798,1.4803,1.4849,1.4861,1.4871,1.4874,1.4734,0,0,0,0,0,1.5006,1.501,1.4971,1.4999,1.4993,1.4953,1.4952,1.4924,1.4906,1.4899,1.4875,1.486,1.4859,1.4859,1.4856,1.489,1.4882,1.4909,1.4919,1.4927,1.4932,1.4947,1.4958,1.4839,1.4839,1.4839,0,0,1.5047,1.5023,1.5029,1.5014,1.4999,1.5004,1.4948,1.4957,1.496,1.4901,1.4915,1.4897,1.4876,1.4902,1.4912,1.4889,1.4963,1.4933,1.494,1.494,1.4953,1.4964,1.4974,1.4842,1.4842,1.4841,0,0,1.5126,1.5109,1.513,1.5115,1.5092,1.5065,1.5071,1.5039,1.5024,1.5037,1.4992,1.4996,1.4996,1.4982,1.4976,1.5048,1.5014,1.5048,1.51,1.5115,1.5125,1.5133,1.5157,1.5167,1.5053,1.5053,1.5054,0,1.5181,1.5187,1.5145,1.5155,1.5149,1.5095,1.5115,1.5104,1.5082,1.5079,1.5054,1.5051,1.5034,1.5054,1.5072,1.5069,1.5072,1.5051,1.5127,1.5134,1.5141,1.5164,1.5174,1.5058,1.5057,1.5057,1.5056,0,1.5255,1.526,1.5279,1.5258,1.5254,1.527,1.523,1.5231,1.5203,1.5179,1.5192,1.5169,1.516,1.5163,1.5136,1.518,1.5166,1.5135,1.5091,1.5157,1.5178,1.5187,1.5064,1.5062,1.5061,1.506,0,0,1.5381,1.5335,1.5343,1.5332,1.5302,1.5305,1.5318,1.5308,1.531,1.5296,1.5305,1.5306,1.5276,1.5268,1.5239,1.5253,1.531,1.5219,1.5218,1.5236,1.5355,1.5378,1.5389,1.5287,1.5289,1.529,1.5356,0,1.5452,1.5471,1.5433,1.5461,1.5464,1.5412,1.5423,1.5406,1.5384,1.5383,1.5359,1.5359,1.532,1.5315,1.5326,1.5301,1.5333,1.5295,1.5295,1.5295,1.5301,1.54,1.5425,1.5488,1.5364,1.5365,1.5366,0,1.5538,1.5528,1.5556,1.5523,1.5523,1.5534,1.5521,1.5521,1.5501,1.5483,1.5474,1.544,1.5449,1.5408,1.5421,1.5396,1.5393,1.5381,1.5382,1.538,1.5334,1.5399,1.5508,1.5517,1.5379,1.5378,1.5377,0,1.5626,1.5619,1.5634,1.5627,1.559,1.5598,1.5583,1.556,1.5556,1.5545,1.5542,1.5532,1.5527,1.5521,1.5484,1.5457,1.5501,1.5456,1.5486,1.5487,1.5497,1.5497,1.5605,1.5497,1.5497,1.5497,1.5497,0,1.5709,1.5728,1.5673,1.5683,1.5702,1.5658,1.5678,1.5658,1.5638,1.5642,1.5597,1.5603,1.5555,1.5554,1.5526,1.554,1.5538,1.5524,1.5516,1.5528,1.5529,1.5525,1.5519,1.5499,1.5499,1.5498,1.5498,0,1.581,1.5774,1.5787,1.575,1.5741,1.5757,1.5726,1.5733,1.5707,1.5713,1.5712,1.5672,1.5669,1.5632,1.5622,1.5603,1.5627,1.5612,1.5634,1.5629,1.566,1.5657,1.5769,1.578,1.5666,1.5667,1.5668,0,1.5865,1.5878,1.5842,1.5842,1.5828,1.5828,1.5824,1.5781,1.5778,1.5754,1.5764,1.5758,1.575,1.5748,1.5718,1.5709,1.5692,1.5732,1.5691,1.5701,1.5692,1.5691,1.5691,1.5741,1.5742,1.5743,1.5744,0,1.5966,1.5947,1.5942,1.593,1.5926,1.5915,1.5901,1.5903,1.5856,1.5854,1.5851,1.5845,1.5833,1.5827,1.5813,1.5797,1.5763,1.5758,1.5764,1.5775,1.5787,1.578,1.5657,1.5755,1.5754,1.5753,1.5753,1.5752,1.6045,1.6053,1.6029,1.6024,1.6009,1.5997,1.6001,1.5976,1.5972,1.5958,1.5934,1.5933,1.5911,1.5888,1.5876,1.5875,1.5854,1.5864,1.5866,1.5868,1.5874,1.5788,1.5872,1.5872,1.5871,1.5871,1.5871,0,1.6142,1.6124,1.612,1.6101,1.6098,1.6065,1.6048,1.6047,1.6047,1.6029,1.6022,1.6017,1.601,1.598,1.5969,1.5975,1.5958,1.5973,1.5972,1.5969,1.5893,1.5889,1.5986,1.5986,1.5986,1.5986,1.5986,1.5986,1.6192,1.6205,1.6183,1.6187,1.6169,1.6167,1.616,1.6148,1.6134,1.613,1.6124,1.6104,1.608,1.6068,1.606,1.6051,1.6049,1.6069,1.6055,1.5985,1.5974,1.5964,1.5959,1.607,1.607,1.613,1.6131,1.6131]},{"header":{"parameterUnit":"m.s-1","parameterCategory":1,"la1":30.2991,"la2":30.254,"lo1":-89.0895,"lo2":-89.0444,"dy":0.0017,"dx":0.0017,"nx":28,"ny":28,"refTime":"2024-05-17T03:00:00:Z","depth":0,"parameterNumber":3,"parameterNumberName":"V-component_of_WINDS"},"data":[0,0,0,0,0,0,0,0,0,0,0,0,0,0,0,0,0,0,0,0,0,0,0,0,0,0,0,0,0,0,0,0,0,0,0,0,0,0,0,0,0,0,0,0,0,0,0,0,0,0,0,0,0,0,0,0,0,0,5.7756,5.7757,0,5.7863,5.7864,5.7865,5.7837,5.7835,5.7833,5.7831,5.7934,5.7939,5.7943,0,0,0,0,0,0,0,0,0,0,0,0,0,5.7521,5.7525,5.7756,5.7757,5.7759,5.7862,5.7864,5.7865,5.7837,5.7835,5.7832,5.783,5.7933,5.7938,5.7944,0,0,0,0,0,0,0,0,0,0,0,0,0,5.7625,5.7527,5.7756,5.7757,5.7758,5.7862,5.7864,5.7866,5.7838,5.7835,5.7831,5.7829,5.7931,5.7938,5.7945,5.8051,0,0,5.7966,5.7969,0,0,0,0,0,0,0,0,5.7619,5.7633,5.7756,5.7757,5.7759,5.7833,5.7819,5.7928,5.7839,5.7807,5.7831,5.7827,5.7903,5.7912,5.7939,5.8056,5.8061,5.7967,5.7971,5.7974,5.7976,0,0,0,0,0,0,0,5.7612,5.7628,5.7798,5.7757,5.7759,5.775,5.7762,5.7839,5.7871,5.781,5.7808,5.7822,5.7903,5.7932,5.7941,5.8062,5.7967,5.7973,5.7977,5.798,5.8271,5.8274,0,0,0,0,0,0,5.7604,5.7623,5.7794,5.7801,5.768,5.7757,5.777,5.7812,5.787,5.7876,5.7824,5.782,5.7921,5.7933,5.7944,5.8073,5.7974,5.7981,5.7985,5.8267,5.8272,5.8275,0,0,0,0,0,0,5.7599,5.762,5.779,5.7712,5.7733,5.7765,5.7813,5.7816,5.7845,5.7881,5.7886,5.7848,5.7919,5.7934,5.8025,5.8076,5.7984,5.799,5.8263,5.8269,5.8273,5.8331,0,0,0,0,0,0,5.7593,5.7618,5.7661,5.7713,5.7737,5.7871,5.7816,5.7821,5.7858,5.7854,5.7905,5.7911,5.7918,5.8015,5.8032,5.8084,5.7996,5.8259,5.8266,5.8272,5.8324,5.8337,5.8348,0,0,0,0,0,5.7584,5.7672,5.7663,5.7684,5.7791,5.7874,5.7888,5.7896,5.7863,5.7905,5.7927,5.7909,5.8067,5.8024,5.8044,5.8098,5.8256,5.8264,5.8271,5.8319,5.8335,5.8348,0,0,0,0,0,0,5.7623,5.7679,5.767,5.7777,5.7822,5.787,5.7923,5.7913,5.7966,5.7959,5.7965,5.7977,5.807,5.8093,5.8044,5.8204,5.8156,5.8168,5.8186,5.8201,5.8213,5.8205,5.8002,0,0,0,0,0,5.7645,5.771,5.7754,5.7844,5.7867,5.7891,5.7928,5.793,5.7976,5.7994,5.8023,5.8066,5.8125,5.8164,5.8221,5.8327,5.8337,5.8374,5.8386,5.8395,5.8406,5.8463,5.8479,5.8301,5.8301,5.8301,0,0,5.7689,5.7727,5.7768,5.7853,5.7887,5.7952,5.7907,5.7978,5.8026,5.8004,5.8092,5.8115,5.8162,5.8261,5.8306,5.8283,5.8457,5.8405,5.8413,5.8418,5.8472,5.8489,5.8504,5.8306,5.8305,5.8305,0,0,5.7803,5.7839,5.7918,5.7954,5.8008,5.8023,5.8042,5.8092,5.8106,5.8195,5.818,5.8235,5.8337,5.8372,5.8403,5.8529,5.8513,5.8547,5.8609,5.8664,5.8678,5.8691,5.8735,5.8751,5.8557,5.8557,5.8557,0,5.7851,5.7951,5.7959,5.8032,5.8069,5.8054,5.8132,5.8166,5.8234,5.8259,5.8233,5.836,5.8391,5.8498,5.8528,5.8554,5.8574,5.8541,5.8676,5.8688,5.87,5.8742,5.8759,5.8561,5.856,5.856,5.8559,0,5.8007,5.8076,5.8133,5.8201,5.8244,5.832,5.8337,5.8379,5.8378,5.8395,5.8484,5.8521,5.8584,5.8609,5.8608,5.8715,5.8699,5.8674,5.8627,5.8721,5.8761,5.8777,5.8566,5.8565,5.8563,5.8563,0,0,5.815,5.8222,5.8243,5.8273,5.833,5.8383,5.8456,5.852,5.8555,5.8602,5.8663,5.8749,5.8726,5.8761,5.8763,5.8811,5.8908,5.878,5.8781,5.8803,5.9027,5.9046,5.9065,5.8897,5.8901,5.8903,5.9023,0,5.8269,5.8401,5.841,5.8528,5.8591,5.8576,5.864,5.868,5.8698,5.8752,5.877,5.8831,5.8797,5.8818,5.8865,5.8886,5.8953,5.8877,5.8952,5.8955,5.8942,5.9086,5.9106,5.9217,5.9038,5.9041,5.9043,0,5.8427,5.8481,5.8606,5.8653,5.868,5.8737,5.8795,5.8848,5.8892,5.8902,5.8941,5.8935,5.9008,5.8957,5.9056,5.9005,5.9035,5.905,5.9054,5.9062,5.9005,5.9097,5.9253,5.927,5.9068,5.9066,5.9064,0,5.8519,5.8622,5.871,5.8736,5.8794,5.8834,5.886,5.8901,5.8939,5.8989,5.9012,5.9069,5.9101,5.9144,5.9153,5.9115,5.9252,5.9202,5.926,5.926,5.929,5.9288,5.9454,5.931,5.9309,5.9309,5.9309,0,5.8651,5.8728,5.8752,5.8806,5.8891,5.8899,5.8982,5.9004,5.9041,5.9098,5.9087,5.914,5.9148,5.9202,5.9209,5.929,5.9304,5.9312,5.9313,5.9314,5.9313,5.9334,5.9327,5.9313,5.9312,5.9312,5.9311,0,5.8769,5.8788,5.8883,5.893,5.8943,5.9004,5.9042,5.9093,5.9109,5.918,5.9197,5.9222,5.9284,5.9298,5.9372,5.9376,5.9472,5.9465,5.9458,5.9457,5.9515,5.9509,5.97,5.9725,5.9564,5.9566,5.9567,0,5.8853,5.8912,5.8965,5.9004,5.9031,5.9093,5.9131,5.914,5.9179,5.9234,5.9278,5.934,5.939,5.9491,5.9513,5.9569,5.9564,5.9627,5.9572,5.957,5.9565,5.9561,5.9567,5.9637,5.9639,5.9641,5.9642,0,5.9,5.9006,5.9063,5.9123,5.9169,5.9216,5.9261,5.9292,5.9306,5.9351,5.9417,5.9456,5.9531,5.9592,5.9648,5.9671,5.9659,5.9659,5.9675,5.9676,5.967,5.9674,5.9487,5.9654,5.9653,5.9652,5.9652,5.9651,5.9103,5.9155,5.92,5.9263,5.9298,5.934,5.939,5.9412,5.9467,5.9531,5.9532,5.9603,5.9644,5.9718,5.9745,5.9798,5.9779,5.9802,5.9808,5.9814,5.982,5.9661,5.9808,5.9808,5.9808,5.9807,5.9807,0,5.9249,5.9278,5.9336,5.94,5.9449,5.9434,5.9482,5.9523,5.9586,5.9627,5.9676,5.975,5.9809,5.9836,5.9894,5.9931,5.9927,5.9946,5.9944,5.9949,5.9834,5.9815,5.9949,5.9949,5.9949,5.9949,5.9949,5.9949,5.9331,5.9418,5.9429,5.9532,5.9559,5.963,5.9658,5.9696,5.9728,5.9812,5.9861,5.9879,5.9913,5.9973,6.0026,6.0032,6.0053,6.0076,6.0079,5.9972,5.9957,5.9944,5.9925,6.008,6.008,6.0189,6.019,6.0191]}]]